Weather History for Faith, SD

Change the Weather History Date:

Sunday, March 24, 2013

  Actual Average Record
Temperature  
Mean Temperature 16 °F 36 °F  
Max Temperature 25 °F 46 °F 69 °F (2004)
Min Temperature 6 °F 25 °F 6 °F (2013)
Degree Days  
Heating Degree Days 49 30  
Month to date heating degree days 859 809  
Since 1 July heating degree days 6202 6497  
Cooling Degree Days 0 0  
Month to date cooling degree days 0 0  
Year to date cooling degree days 0 0  
Moisture  
Dew Point 10 °F    
Average Humidity 77    
Maximum Humidity 92    
Minimum Humidity 62    
Precipitation  
Precipitation 0.01 in 0.03 in 0.34 in (2009)
Month to date precipitation 0.41 0.66  
Year to date precipitation 0.98 1.28  
Sea Level Pressure  
Sea Level Pressure 30.34 in    
Wind  
Wind Speed 16 mph (NNW)    
Max Wind Speed 25 mph    
Max Gust Speed 31 mph    
T = Trace of Precipitation, MM = Missing Value Source: NWS Daily Summary

Daily Weather History Graph

Daily Weather History Graph

Search for Another Location

Airport:

Trip Planner

Search our weather history database for the weather conditions in past years. The results will help you decide how hot, cold, wet, or windy it might be!

Date:

Astronomy

Mar. 24, 2013 Rise Set
Actual Time 6:43 AM MDT 7:06 PM MDT
Civil Twilight 6:13 AM MDT 7:35 PM MDT
Nautical Twilight 5:39 AM MDT 8:10 PM MDT
Astronomical Twilight 5:03 AM MDT 8:46 PM MDT
Moon 4:31 PM MDT (3/24) 5:00 AM MDT (3/24)
Length of Visible Light 13h 21m
Length of Day
12h 22m
Waxing Gibbous, 92% of the Moon is Illuminated
Mar 24
Waxing Gibbous
Mar 27
Full
Apr 2
Last Quarter
Apr 10
New
Apr 18
First Quarter

Hourly Weather History & Observations

Time (MDT) Temp. Windchill Dew Point Humidity Pressure Visibility Wind Dir Wind Speed Gust Speed Precip Events Conditions
12:56 AM 8.1 °F -3.2 °F 5.0 °F 87% 30.34 in - WNW 6.9 mph - N/A   Unknown
1:56 AM 7.0 °F -6.6 °F 3.9 °F 87% 30.33 in - WNW 9.2 mph - N/A   Unknown
2:56 AM 6.1 °F -5.6 °F 3.0 °F 87% 30.32 in - WNW 6.9 mph - N/A   Unknown
3:56 AM 7.0 °F -7.5 °F 3.9 °F 87% 30.31 in - WNW 10.4 mph - N/A   Unknown
4:56 AM 8.1 °F -8.4 °F 3.9 °F 83% 30.30 in - WNW 13.8 mph - N/A   Unknown
5:56 AM 8.1 °F -9.0 °F 3.9 °F 83% 30.30 in - NW 15.0 mph - N/A   Unknown
6:56 AM 8.1 °F -10.2 °F 3.9 °F 83% 30.31 in - NW 17.3 mph - N/A   Unknown
7:56 AM 10.0 °F -8.1 °F 5.0 °F 80% 30.30 in - NW 18.4 mph - N/A   Unknown
8:56 AM 12.9 °F -3.4 °F 8.1 °F 81% 30.30 in - NW 16.1 mph 25.3 mph N/A   Unknown
9:56 AM 17.1 °F 0.1 °F 10.9 °F 77% 30.30 in - NNW 20.7 mph 25.3 mph N/A   Unknown
10:56 AM 19.9 °F 3.9 °F 12.9 °F 74% 30.30 in - NNW 20.7 mph - N/A   Unknown
11:56 AM 21.9 °F 7.3 °F 15.1 °F 75% 30.31 in - NNW 18.4 mph - N/A   Unknown
12:56 PM 24.1 °F 9.8 °F 15.1 °F 69% 30.31 in - North 19.6 mph - N/A   Unknown
1:56 PM 24.1 °F 9.4 °F 14.0 °F 65% 30.31 in - NNW 20.7 mph 25.3 mph N/A   Unknown
2:56 PM 21.9 °F 5.8 °F 16.0 °F 78% 30.32 in - North 23.0 mph 28.8 mph N/A   Unknown
3:56 PM 21.9 °F 6.9 °F 17.1 °F 82% 30.33 in - North 19.6 mph - N/A   Unknown
4:56 PM 23.0 °F 8.0 °F 15.1 °F 72% 30.34 in - North 20.7 mph - N/A   Unknown
5:56 PM 21.9 °F 6.9 °F 12.9 °F 68% 30.37 in - North 19.6 mph - N/A   Unknown
6:56 PM 19.9 °F 5.7 °F 16.0 °F 85% 30.39 in - NNW 16.1 mph - N/A   Unknown
7:56 PM 19.0 °F 6.1 °F 16.0 °F 88% 30.40 in - North 12.7 mph - N/A   Unknown
8:56 PM 19.0 °F 6.1 °F 16.0 °F 88% 30.41 in - North 12.7 mph - N/A   Unknown
9:56 PM 18.0 °F 6.1 °F 16.0 °F 92% 30.40 in - NNW 10.4 mph - 0.01 in   Unknown
10:56 PM 12.9 °F -2.2 °F 9.0 °F 84% 30.42 in - NW 13.8 mph - N/A   Unknown
11:56 PM 8.1 °F -7.7 °F 5.0 °F 87% 30.44 in - NW 12.7 mph - N/A   Unknown